Location: ???? ??
(36.0534°N, 43.5630°E)
Time: 14:15:52
(UTC+00:00)

Daily predictions for brighter satellites

Satellite Brightness Start Highest point End
(mag) Time Altitude Azimuth Time Altitude Azimuth Time Altitude Azimuth
BREEZE-M DEB (TANK) 3.4 15:18:00 10° SW 15:20:54 82° NW 15:29:55 10° NE
MOS 1 Rocket 4.1 15:18:55 10° N 15:24:01 65° WNW 15:29:18 10° SSW
Cosmos 1470 Rocket 4.3 15:20:21 10° SSE 15:24:21 33° E 15:28:21 10° NNE
H-2A R/B 4.1 15:22:23 10° N 15:25:58 30° WNW 15:29:34 10° SW
Cosmos 1271 Rocket 2.6 15:22:44 10° N 15:26:26 61° E 15:30:10 10° SSE
Cosmos 2333 Rocket 3.7 15:23:55 10° SE 15:26:54 15° E 15:29:54 10° ENE
SKYMED 2 4.2 15:22:39 10° N 15:26:57 64° WNW 15:31:14 10° SSW
PSLV R/B 4.1 15:25:43 10° NNE 15:29:41 49° E 15:33:36 10° S
Cosmos 1602 3.7 15:28:08 10° S 15:31:58 65° E 15:35:50 10° NNE
Okean O Rocket 3.6 15:29:08 10° SSW 15:33:05 35° W 15:37:04 10° NNW
COSMOS 2455 3.9 15:29:02 10° NW 15:34:50 51° WSW 15:40:36 10° S
Cosmos 1500 3.8 15:36:23 10° SSE 15:39:43 32° E 15:43:04 10° NNE
CZ-4B R/B 3.0 15:37:12 10° N 15:40:03 36° WNW 15:42:54 10° SW
CZ-2D R/B 4.0 15:37:46 10° S 15:41:30 56° W 15:45:15 10° NNW
SJ-11-01 4.4 15:37:51 10° SSE 15:42:22 52° ENE 15:46:55 10° N
CZ-2C R/B 3.8 15:38:29 10° S 15:44:13 65° W 15:49:47 10° NNW
Cosmos 1933 Rocket 4.1 15:41:19 10° SSE 15:45:16 36° E 15:49:16 10° NNE
Cosmos 2322 Rocket 2.4 15:41:05 10° SSW 15:46:41 75° WNW 15:52:18 10° NNE
Cosmos 1666 Rocket 4.4 15:42:30 10° SSW 15:46:45 55° W 15:51:00 10° N
Nadezhda 3 Rocket 4.1 15:48:05 10° N 15:54:24 62° E 16:00:40 10° SSE
Cosmos 1862 Rocket 3.5 15:50:02 10° N 15:54:31 69° E 15:58:57 10° SSE
Cosmos 2154 Rocket 4.0 15:48:21 10° S 15:54:34 84° E 16:00:48 10° N
Cosmos 1295 Rocket 4.4 15:49:43 10° S 15:55:57 71° E 16:02:07 10° N
Cosmos 1689 Rocket 2.0 15:53:08 10° N 15:56:01 82° WNW 15:58:53 10° SSW
COSMOS 2428 3.9 15:52:50 10° SE 15:56:47 20° E 16:00:08 12° ENE
Cosmos 1610 Rocket 4.5 15:52:11 10° S 15:58:21 89° ESE 16:04:38 10° N
Cosmos 2242 Rocket 4.4 15:55:50 10° NNE 15:59:44 28° ENE 16:03:35 10° SE
Lacrosse 4 Rocket 2.7 15:56:56 10° SSE 16:00:14 22° ESE 16:01:33 19° E
Meteor 1-14 Rocket 4.1 15:54:50 10° S 16:00:23 71° E 16:05:54 10° NNE
YAOGAN 1 2.6 15:58:58 10° S 16:03:17 83° WSW 16:07:37 10° NNW
Cosmos 2219 Rocket 3.0 15:59:37 10° SSE 16:04:16 28° ESE 16:08:56 10° NE
Helios 1A Rocket 2.9 16:00:29 10° SSE 16:04:26 54° ENE 16:08:24 10° N
Aureole 2 Rocket 2.6 16:02:29 10° N 16:04:23 27° NE 16:04:23 27° NE
GP-B 3.2 16:06:15 10° SSE 16:10:32 52° E 16:14:51 10° N
SJ-6B 4.4 16:11:17 19° NE 16:11:17 19° NE 16:13:36 10° NNE
APEX 4.1 16:08:08 10° NW 16:10:38 33° WSW 16:13:09 10° S
SL-16 R/B 3.8 16:06:11 10° SW 16:11:21 36° WNW 16:16:33 10° N
ARGOS 3.1 16:06:30 10° SSE 16:11:55 82° ENE 16:17:22 10° N
USA 234 3.2 16:06:54 10° NE 16:13:28 85° SE 16:20:02 10° SW
Meteor 1-18 Rocket 4.3 16:10:52 10° N 16:16:50 87° W 16:22:42 10° S
Cosmos 2263 Rocket 3.8 16:11:53 10° NW 16:16:55 36° WSW 16:21:57 10° S
Cosmos 968 Rocket 4.0 16:14:22 10° NNW 16:19:34 64° WSW 16:24:45 10° S
Cosmos 1486 Rocket 4.3 16:17:45 10° NNW 16:23:01 69° WSW 16:28:17 10° S
Cosmos 2322 3.7 16:18:04 10° S 16:23:38 56° ESE 16:29:14 10° NNE
H-2A R/B 3.1 16:18:57 10° S 16:24:12 51° W 16:29:31 10° NNW
SeaSat 1 3.1 16:20:01 10° NNE 16:24:51 57° WNW 16:29:39 10° SW
SL-8 Rocket 4.0 16:20:35 10° S 16:26:41 58° E 16:32:46 10° NNE
Okean 1 4.4 16:23:52 10° NNW 16:27:45 46° W 16:31:37 10° SSW
Cosmos 962 Rocket 4.5 16:22:31 10° S 16:28:42 89° W 16:34:59 10° N
CZ-4 R/B 3.3 16:25:38 10° SSW 16:29:00 29° W 16:32:25 10° NW
CZ-2C R/B 2.9 16:23:43 10° N 16:29:09 72° WNW 16:34:26 10° SSW
Okean 1-7 3.1 16:25:59 10° N 16:30:14 51° E 16:31:49 33° SE
DMSP B5D2-2 3.9 16:30:57 10° NNE 16:36:12 85° ESE 16:41:24 10° SSW
NOSS 3-2 (A) 4.2 16:34:10 10° S 16:37:12 26° SE 16:37:12 26° SE
Cosmos 1869 Rocket 3.4 16:35:13 10° S 16:39:29 61° E 16:43:48 10° NNE
Cosmos 2366 rocket 3.9 16:35:26 10° S 16:41:36 62° E 16:47:51 10° NNE
CSL-04 Rocket 4.1 16:38:47 10° S 16:44:16 65° WSW 16:49:47 10° NNW
Cosmos 1339 Rocket 4.4 16:39:14 10° N 16:45:25 66° E 16:51:40 10° SSE
ATLAS CENTAUR R/B 3.6 16:44:06 10° WSW 16:46:52 20° NW 16:49:40 10° N
Cosmos 1354 Rocket 4.0 16:44:26 10° NNW 16:49:42 83° WSW 16:52:57 23° SSE
Cosmos 2341 Rocket 4.3 16:43:35 10° SSW 16:49:52 69° W 16:56:08 10° N
Cosmos 1844 Rocket 2.5 16:46:40 10° NNW 16:52:15 83° ENE 16:54:25 39° SSE
Cosmos 44 Rocket 4.2 16:47:53 10° NW 16:52:56 51° WSW 16:56:37 18° S
Cosmos 2333 4.4 16:48:41 10° SSW 16:54:16 70° WNW 16:59:57 10° NNE
Cosmos 1666 3.6 16:52:46 10° SSW 16:56:20 47° W 16:59:57 10° N
Cosmos 2084 Rocket 3.8 16:53:13 10° NW 16:57:37 67° WSW 16:58:23 54° S
Cosmos 1777 Rocket 4.4 16:53:29 10° N 16:57:41 45° NE 16:57:41 45° NE
Cosmos 2360 Rocket 3.9 16:55:52 10° WSW 17:00:52 32° WNW 17:05:55 10° N
Ariane Rocket 3.2 17:01:53 53° NE 17:01:53 53° NE 17:06:10 10° N
Cosmos 1844 3.6 16:58:05 10° NNW 17:03:52 85° ENE 17:05:01 59° SSE
Cosmos 2218 Rocket 4.1 17:02:08 10° S 17:08:31 77° W 17:14:57 10° N
Cosmos 1727 Rocket 4.3 17:03:16 10° N 17:08:09 47° NE 17:08:09 47° NE
Cosmos 2278 Rocket 4.2 17:05:16 10° N 17:06:43 15° NNE 17:06:43 15° NNE
DELTA 2 R/B (1) 3.4 17:04:14 10° WSW 17:09:40 75° SSE 17:09:40 75° SSE
Cosmos 2333 Rocket 2.5 17:04:53 10° SSW 17:10:30 64° WNW 17:16:11 10° NNE
SME Rocket 4.4 17:15:24 10° N 17:22:36 58° WNW 17:27:23 10° SSW
Lacrosse 4 Rocket 3.4 17:34:50 10° WSW 17:38:01 29° WNW 17:38:01 29° WNW
COSMOS 2428 3.5 17:35:07 10° SW 17:40:36 49° WNW 17:42:29 36° NNW
Cosmos 2219 Rocket 3.6 17:42:58 10° SW 17:48:01 35° WNW 17:53:07 10° N
